Regional Weather Roundup
Issued by NWS

Home | Current Version | Previous Version | Text Only | Print | Product List | Glossary Off
Versions: 1 2 3 4 5 6 7 8 9 10 11 12 13 14 15 16 17 18 19 20 21 22 23 24 25 26 27 28

000
ASUS45 KTFX 100310
RWRMT
MONTANA REGIONAL WEATHER ROUNDUP
NATIONAL WEATHER SERVICE GREAT FALLS MT
800 PM MST SAT DEC 09 2017

NOTE: "FAIR" INDICATES FEW OR NO CLOUDS BELOW 12000 FEET WITH NO
SIGNIFICANT WEATHER AND/OR OBSTRUCTIONS TO VISIBILITY.

MTZ001>007-043-100400-
WEST OF THE DIVIDE

CITY           SKY/WX    TMP DP  RH WIND       PRES   REMARKS
KALISPELL      CLOUDY    25  20  81 E3        30.64R
MISSOULA       CLOUDY    20  19  96 SE5       30.64R FOG
BUTTE          FAIR      11   7  84 SE3       30.52R
MULLAN PASS    FAIR      36  10  34 W5        30.50R
ANACONDA         N/A     16  10  79 SW5       30.54R
DEER LODGE       N/A     12   9  85 W5        30.55F
EUREKA           N/A     25  18  74 MISG      30.66S
HAMILTON         N/A     18  14  86 CALM      30.61S
LIBBY            N/A    N/A N/A N/A CALM      30.64R
PLAINS           N/A     29  19  66 CALM      30.61
RONAN            N/A     26  21  81 S3        30.60S
$$

MTZ008-052>055-100400-
SOUTHWEST MONTANA

CITY           SKY/WX    TMP DP  RH WIND       PRES   REMARKS
BOZEMAN        FAIR      15  11  83 SE5       30.50R
DILLON         FAIR      28  13  53 SW10      30.50S WCI  19
W YELLOWSTONE  FAIR       7   5  92 CALM      30.59R
ENNIS          CLOUDY    25  12  58 S6        30.55R WCI  18
THREE FORKS      N/A     13   9  84 CALM      30.42S
$$

MTZ009-010-012-014-046-048-049-054-100400-
EAST SLOPES AND CENTRAL MONTANA

CITY           SKY/WX    TMP DP  RH WIND       PRES   REMARKS
CUT BANK       FAIR      37   9  31 W13       30.29R WCI  29
GREAT FALLS    FAIR      41   9  26 SW17      30.34S
MALMSTROM AFB  FAIR      37  11  33 SW17      30.33S WCI  28
HELENA         FAIR      23  17  78 SW3       30.48R
BOWMANS CRNR   FAIR      34   9  35 S15       30.36R WCI  24
CHOTEAU          N/A     46   3  17 SW6       30.33S
FAIRFIELD      FAIR      39   6  25 S6        30.32R
POWER          FAIR      36   8  30 SW14      30.32R WCI  27
RAYNESFORD     FAIR      48   6  18 SW18G26   30.33S
ULM            FAIR      37  11  33 S9        30.37R WCI  31
$$

MTZ011-013-016-021-045-047-050-051-100400-
NORTH CENTRAL MONTANA

CITY           SKY/WX    TMP DP  RH WIND       PRES   REMARKS
HAVRE          FAIR      34  12  40 SW12      30.26R WCI  25
LEWISTOWN      FAIR      34  15  46 W9        30.33R WCI  27
N BAR RANCH    FAIR      43   3  19 NW10      30.32R
CHINOOK          N/A     32  12  43 SW6       30.23S WCI  26
DENTON         FAIR      42   9  25 MISG      30.28R
GEYSER         FAIR      45   8  22 W21       30.31S
GRASS RANGE    FAIR      44  11  25 SW14G22   30.27R
STANFORD       FAIR      37   8  30 W5        30.33R
WINIFRED       FAIR      41   9  26 W12       30.29R
$$

MTZ017>020-022>027-061-062-100400-
NORTHEAST MONTANA

CITY           SKY/WX    TMP DP  RH WIND       PRES   REMARKS
GLASGOW        FAIR      33  11  39 W7        30.17S WCI  27
GLENDIVE       FAIR      43  14  31 W22       30.14R
JORDAN           N/A     28  10  46 W9        30.23R WCI  19
SIDNEY         FAIR      44  19  36 W21G29    30.07F
WOLF POINT     FAIR      38  13  35 W12       30.14R WCI  30
MALTA          CLEAR     28  12  50 W10       30.22R WCI  19
PLENTYWOOD       N/A     39  23  52 W9        30.04R
POPLAR           N/A     43  12  28 W16       30.12R
SCOBEY           N/A     41  16  36 W9        30.06
$$

MTZ028>42-056>058-100400-
SOUTHCENTRAL AND SOUTHEAST MONTANA

CITY           SKY/WX    TMP DP  RH WIND       PRES   REMARKS
BAKER          FAIR      38  19  46 W15       30.15S WCI  29
BILLINGS       FAIR      39  17  41 SW23      30.32R WCI  28
LIVINGSTON     FAIR      43  14  31 W22G33    30.42R
MILES CITY     FAIR      37  13  37 NW12      30.23R WCI  29
BIG TIMBER     CLEAR     46   7  19 W33G43    30.37R
EKALAKA          N/A     39  10  30 W9        30.16
FORSYTH          N/A     43  10  26 W6        30.26S
HARLOWTON      FAIR      42   8  24 NW28      30.36R
LAUREL           N/A     34  19  55 SW13      30.35R WCI  25
$$

REGIONAL REPORTS...DAKOTAS

CITY           SKY/WX    TMP DP  RH WIND       PRES   REMARKS
WILLISTON      FAIR      40  22  48 CALM      30.05R
MINOT          FAIR      39  25  57 W26G32    29.90S WCI  28
DICKINSON      FAIR      39  22  50 W16       30.02S WCI  30
BEACH          MOCLDY    41  16  36 W21G26    30.13R
CROSBY         FAIR      34  25  69 NW14      29.99F WCI  24
TIOGA          FAIR      36  25  64 NW15G21   30.00S WCI  26
BISMARCK       FAIR      41  27  57 NW12      29.97R
GRAND FORKS    FAIR      31  24  75 NW13      29.78R WCI  21
FARGO          FAIR      29  23  78 W10       29.80F WCI  20
BUFFALO SD       N/A     43  19  38 W24       30.07R
RAPID CITY     FAIR      51   8  17 NW18      30.16R
$$

REGIONAL REPORTS...WYOMING/IDAHO/WASHINGTON

CITY           SKY/WX    TMP DP  RH WIND       PRES   REMARKS
GILLETTE       FAIR      35  11  36 W16       30.29R WCI  25
SHERIDAN       FAIR      29  14  53 S5        30.33R
BUFFALO WY     FAIR      36   6  28 SW8       30.34R WCI  30
YELLOWSTONE LA   N/A     11   8  88 NW3       30.58R
IDAHO FALLS    FOG        9   7  92 CALM      30.64R VSB 1/2
SALMON         CLOUDY    19  15  84 W3        30.75S
BOISE          CLOUDY    27  20  75 S6        30.71S WCI  20
SPOKANE        CLOUDY    28  25  88 N3        30.63R
$$

REGIONAL REPORTS...ALBERTA

CITY           SKY/WX    TMP DP  RH WIND       PRES   REMARKS
EDMONTON       CLEAR     34  18  51 W6        30.08R WCI  29
CALGARY        PTCLDY    50   5  16 SW9       30.18S
LETHBRIDGE     PTCLDY    43  10  26 W15       30.23S
MEDICINE HAT   CLEAR     32  16  51 S8        30.20R WCI  25
$$

REGIONAL REPORTS...SASKATCHEWAN

CITY           SKY/WX    TMP DP  RH WIND       PRES   REMARKS
SWIFT CURRENT  CLEAR     36  18  48 W17       30.08F WCI  25
REGINA         PTCLDY    30  23  74 W12       29.98S WCI  21
SASKATOON      MOCLDY    25  19  80 SW7       30.01R WCI  17
$$




USA.gov is the U.S. government's official web portal to all federal, state and local government web resources and services.